Tracking 28793 objects as of 21-Apr-2024
HD Live streaming from Space Station
objects crossing your sky now

BREEZE-M R/B

Track BREEZE-M R/B now!


NORAD ID: 34711
Int'l Code: 2009-016B
Perigee: 3,797.2 km
Apogee: 33,349.3 km
Inclination: 20.5 °
Period: 653.5 minutes
Semi major axis: 24944 km
RCS: 9.3076 m2 (large)
Launch date: April 3, 2009
Source: Commonwealth of Independent States (former USSR) (CIS)
Launch site: TYURATAM MISSILE AND SPACE COMPLEX (TTMTR)

Note: This is a ROCKET BODY
Your satellite tracking list
Your tracking list is empty




NASA's NSSDC Master Catalog

Two Line Element Set (TLE):
1 34711U 09016B   24111.21378478 -.00000116  00000-0  00000-0 0  9990
2 34711  20.4995 102.1590 5923633  93.2573 332.0765  2.20367486129179
Source of the keplerian elements: AFSPC